| time (UTC) | temp F | wind direction | speed knots | gust knots | rain 1hr in | rain 24hr in | rain mn in | humidity % | barometer mb |
| 20260507165601 | 65 | 155 | 0.9 | 1.7 | 0.00 | 0.02 | 0.02 | 65 | 1013.8 |
| 20260507164520 | 65 | 307 | 0.0 | 0.9 | 0.00 | 0.12 | 0.02 | 66 | 1013.7 |
| 20260507163523 | 64 | 233 | 2.6 | 3.5 | 0.00 | 0.12 | 0.02 | 67 | 1013.7 |
| 20260507162517 | 64 | 232 | 4.3 | 5.2 | 0.00 | 0.12 | 0.02 | 67 | 1013.8 |
| 20260507161542 | 64 | 219 | 2.6 | 3.5 | 0.00 | 0.12 | 0.02 | 67 | 1013.7 |
| 20260507160535 | 64 | 187 | 5.2 | 6.1 | 0.00 | 0.12 | 0.02 | 68 | 1013.7 |
| 20260507155519 | 65 | 0.0 | 0.0 | 0.00 | 0.12 | 0.02 | 64 | 1013.8 | |
| 20260507154523 | 65 | 0.0 | 0.0 | 0.00 | 0.12 | 0.02 | 61 | 1013.8 | |
| 20260507153517 | 65 | 197 | 5.2 | 7.0 | 0.00 | 0.12 | 0.02 | 55 | 1013.7 |
| 20260507152541 | 66 | 227 | 7.8 | 8.7 | 0.00 | 0.12 | 0.02 | 49 | 1013.5 |
| 20260507151514 | 67 | 242 | 7.8 | 9.6 | 0.00 | 0.12 | 0.02 | 48 | 1013.2 |
| 20260507150518 | 68 | 233 | 8.7 | 10.4 | 0.00 | 0.12 | 0.02 | 51 | 1013.0 |
| 20260507145542 | 67 | 215 | 7.8 | 11.3 | 0.00 | 0.12 | 0.02 | 55 | 1012.7 |
| 20260507144516 | 67 | 213 | 10.4 | 13.9 | 0.00 | 0.12 | 0.02 | 60 | 1012.6 |
| 20260507143600 | 67 | 198 | 8.7 | 11.3 | 0.00 | 0.12 | 0.02 | 64 | 1012.5 |
| 20260507142524 | 68 | 186 | 9.6 | 12.2 | 0.00 | 0.12 | 0.02 | 63 | 1012.5 |
| 20260507141518 | 69 | 212 | 8.7 | 13.0 | 0.00 | 0.12 | 0.02 | 57 | 1012.4 |
| 20260507140522 | 69 | 218 | 10.4 | 12.2 | 0.00 | 0.12 | 0.02 | 62 | 1012.5 |
| 20260507135516 | 69 | 219 | 9.6 | 10.4 | 0.00 | 0.12 | 0.02 | 54 | 1012.5 |
| 20260507134520 | 69 | 205 | 7.0 | 9.6 | 0.00 | 0.12 | 0.02 | 54 | 1012.5 |
| 20260507133524 | 69 | 217 | 10.4 | 13.0 | 0.00 | 0.12 | 0.02 | 59 | 1012.6 |
| 20260507132518 | 68 | 0.0 | 0.0 | 0.00 | 0.12 | 0.02 | 55 | 1012.7 | |
| 20260507131541 | 68 | 196 | 7.0 | 10.4 | 0.00 | 0.12 | 0.02 | 62 | 1012.6 |
| 20260507130516 | 68 | 189 | 9.6 | 12.2 | 0.00 | 0.12 | 0.02 | 62 | 1012.7 |
| 20260507125520 | 68 | 203 | 7.8 | 11.3 | 0.00 | 0.12 | 0.02 | 69 | 1012.8 |
| 20260507124523 | 68 | 198 | 9.6 | 11.3 | 0.00 | 0.12 | 0.02 | 65 | 1012.8 |
| 20260507123517 | 68 | 213 | 9.6 | 12.2 | 0.00 | 0.12 | 0.02 | 64 | 1012.8 |
| 20260507122521 | 68 | 206 | 9.6 | 13.0 | 0.00 | 0.12 | 0.02 | 63 | 1012.8 |
| 20260507121535 | 68 | 190 | 9.6 | 13.0 | 0.00 | 0.12 | 0.02 | 66 | 1012.8 |
| 20260507120519 | 68 | 207 | 8.7 | 12.2 | 0.00 | 0.12 | 0.02 | 69 | 1012.8 |
| 20260507115535 | 67 | 201 | 12.2 | 13.0 | 0.00 | 0.12 | 0.02 | 64 | 1013.0 |
| 20260507114518 | 67 | 195 | 10.4 | 13.0 | 0.00 | 0.12 | 0.02 | 65 | 1013.0 |
| 20260507113521 | 67 | 203 | 10.4 | 12.2 | 0.00 | 0.13 | 0.02 | 65 | 1013.0 |
| 20260507112523 | 67 | 198 | 8.7 | 11.3 | 0.00 | 0.13 | 0.02 | 65 | 1013.1 |
| 20260507111515 | 67 | 186 | 10.4 | 13.0 | 0.00 | 0.13 | 0.02 | 65 | 1013.2 |
| 20260507110518 | 67 | 197 | 9.6 | 11.3 | 0.00 | 0.13 | 0.02 | 62 | 1013.1 |
| 20260507105520 | 66 | 193 | 9.6 | 12.2 | 0.00 | 0.13 | 0.02 | 64 | 1013.3 |
| 20260507104523 | 66 | 194 | 10.4 | 14.8 | 0.00 | 0.13 | 0.02 | 65 | 1013.3 |
| 20260507103514 | 67 | 201 | 10.4 | 13.9 | 0.00 | 0.13 | 0.02 | 62 | 1013.4 |
| 20260507102537 | 67 | 221 | 10.4 | 13.0 | 0.00 | 0.13 | 0.02 | 64 | 1013.4 |
| 20260507101519 | 67 | 198 | 12.2 | 15.6 | 0.00 | 0.13 | 0.02 | 58 | 1013.5 |
| 20260507100522 | 67 | 185 | 9.6 | 12.2 | 0.01 | 0.13 | 0.02 | 64 | 1013.3 |
| 20260507095525 | 67 | 182 | 8.7 | 11.3 | 0.01 | 0.13 | 0.02 | 65 | 1013.4 |
| 20260507094517 | 66 | 193 | 11.3 | 14.8 | 0.01 | 0.13 | 0.02 | 65 | 1013.3 |
| 20260507093519 | 67 | 188 | 10.4 | 13.9 | 0.01 | 0.13 | 0.02 | 65 | 1013.3 |
| 20260507092548 | 66 | 208 | 13.0 | 15.6 | 0.01 | 0.14 | 0.02 | 64 | 1013.2 |
| 20260507091524 | 66 | 0.0 | 0.0 | 0.01 | 0.14 | 0.01 | 65 | 1013.3 | |
| 20260507090516 | 66 | 0.0 | 0.0 | 0.00 | 0.13 | 0.01 | 69 | 1013.2 | |
| 20260507085539 | 66 | 0.0 | 0.0 | 0.00 | 0.13 | 0.01 | 68 | 1013.2 | |
| 20260507084522 | 66 | 180 | 10.4 | 13.9 | 0.00 | 0.13 | 0.01 | 69 | 1013.2 |
| 20260507083524 | 65 | 193 | 9.6 | 13.9 | 0.00 | 0.13 | 0.01 | 66 | 1013.2 |
| 20260507082536 | 65 | 202 | 12.2 | 15.6 | 0.00 | 0.14 | 0.01 | 67 | 1013.1 |
| 20260507081519 | 66 | 173 | 11.3 | 14.8 | 0.00 | 0.14 | 0.01 | 68 | 1013.0 |
| 20260507080601 | 66 | 190 | 8.7 | 12.2 | 0.00 | 0.16 | 0.01 | 71 | 1013.0 |
| 20260507075544 | 66 | 172 | 7.8 | 10.4 | 0.00 | 0.18 | 0.01 | 70 | 1013.0 |
| 20260507074516 | 66 | 183 | 7.8 | 9.6 | 0.00 | 0.18 | 0.01 | 73 | 1013.0 |
| 20260507073518 | 66 | 182 | 7.0 | 10.4 | 0.00 | 0.19 | 0.01 | 71 | 1012.8 |
| 20260507072541 | 65 | 165 | 4.3 | 6.1 | 0.00 | 0.20 | 0.01 | 75 | 1012.8 |
| 20260507071544 | 64 | 165 | 7.0 | 9.6 | 0.00 | 0.22 | 0.01 | 76 | 1012.8 |
| 20260507070536 | 64 | 0.0 | 0.0 | 0.00 | 0.23 | 0.01 | 78 | 1012.8 | |
| 20260507065618 | 63 | 174 | 6.1 | 9.6 | 0.00 | 0.24 | 0.01 | 77 | 1012.6 |
| 20260507064520 | 65 | 0.0 | 0.0 | 0.00 | 0.24 | 0.01 | 76 | 1012.6 | |
| 20260507063523 | 64 | 0.0 | 0.0 | 0.00 | 0.26 | 0.01 | 77 | 1012.6 | |
| 20260507062516 | 63 | 161 | 5.2 | 6.1 | 0.00 | 0.27 | 0.01 | 79 | 1012.4 |
| 20260507061518 | 63 | 91 | 2.6 | 4.3 | 0.00 | 0.28 | 0.01 | 80 | 1012.4 |
| 20260507060521 | 61 | 88 | 3.5 | 3.5 | 0.00 | 0.28 | 0.01 | 84 | 1012.5 |
| 20260507055523 | 61 | 148 | 4.3 | 6.1 | 0.00 | 0.28 | 0.01 | 85 | 1012.4 |
| 20260507054515 | 62 | 90 | 3.5 | 4.3 | 0.00 | 0.29 | 0.01 | 83 | 1012.3 |
| 20260507053518 | 62 | 101 | 4.3 | 5.2 | 0.00 | 0.30 | 0.01 | 86 | 1012.1 |
| 20260507052520 | 60 | 102 | 4.3 | 5.2 | 0.00 | 0.38 | 0.01 | 88 | 1012.1 |
| 20260507051543 | 60 | 139 | 2.6 | 2.6 | 0.00 | 0.38 | 0.01 | 89 | 1012.1 |
| 20260507050515 | 59 | 96 | 2.6 | 2.6 | 0.00 | 0.38 | 0.01 | 90 | 1011.9 |
| 20260507045538 | 58 | 97 | 3.5 | 3.5 | 0.00 | 0.38 | 0.01 | 92 | 1011.8 |
| 20260507044520 | 58 | 168 | 1.7 | 2.6 | 0.01 | 0.38 | 0.01 | 92 | 1011.7 |
| 20260507043522 | 59 | 178 | 1.7 | 1.7 | 0.01 | 0.38 | 0.01 | 91 | 1011.7 |
| 20260507042516 | 59 | 123 | 1.7 | 2.6 | 0.01 | 0.38 | 0.01 | 92 | 1011.6 |
| 20260507041540 | 59 | 0.0 | 0.0 | 0.01 | 0.38 | 0.01 | 90 | 1011.6 | |
| 20260507040520 | 60 | 203 | 0.9 | 0.9 | 0.01 | 0.38 | 0.01 | 88 | 1011.4 |
| 20260507035522 | 60 | 70 | 2.6 | 2.6 | 0.00 | 0.38 | 0.00 | 86 | 1011.4 |
| 20260507034514 | 60 | 71 | 3.5 | 3.5 | 0.00 | 0.38 | 0.00 | 87 | 1011.3 |
| 20260507033517 | 60 | 0.0 | 0.0 | 0.00 | 0.38 | 0.00 | 86 | 1011.3 | |
| 20260507032520 | 60 | 84 | 3.5 | 4.3 | 0.00 | 0.38 | 0.00 | 86 | 1011.4 |
| 20260507031522 | 61 | 81 | 3.5 | 3.5 | 0.00 | 0.38 | 0.00 | 85 | 1011.4 |
| 20260507030515 | 61 | 65 | 3.5 | 4.3 | 0.00 | 0.38 | 0.00 | 86 | 1011.4 |
| 20260507025517 | 60 | 69 | 3.5 | 3.5 | 0.00 | 0.38 | 0.00 | 87 | 1011.4 |
| 20260507024540 | 61 | 56 | 4.3 | 5.2 | 0.00 | 0.38 | 0.00 | 85 | 1011.3 |
| 20260507023542 | 60 | 61 | 6.1 | 7.8 | 0.00 | 0.38 | 0.00 | 86 | 1011.2 |
| 20260507022524 | 60 | 61 | 6.1 | 7.0 | 0.00 | 0.38 | 0.00 | 87 | 1011.4 |
| 20260507021517 | 60 | 63 | 2.6 | 4.3 | 0.00 | 0.38 | 0.00 | 88 | 1011.4 |
| 20260507020519 | 60 | 115 | 1.7 | 2.6 | 0.00 | 0.38 | 0.00 | 86 | 1011.4 |
| 20260507015542 | 61 | 71 | 2.6 | 3.5 | 0.00 | 0.38 | 0.00 | 86 | 1011.4 |
| 20260507014524 | 60 | 71 | 1.7 | 3.5 | 0.00 | 0.38 | 0.00 | 87 | 1011.4 |
| 20260507013517 | 61 | 28 | 2.6 | 2.6 | 0.00 | 0.38 | 0.00 | 86 | 1011.4 |
| 20260507012519 | 61 | 104 | 0.9 | 2.6 | 0.00 | 0.38 | 0.00 | 86 | 1011.4 |
| 20260507011522 | 60 | 17 | 1.7 | 2.6 | 0.00 | 0.38 | 0.00 | 86 | 1011.3 |
| 20260507010524 | 60 | 200 | 0.9 | 1.7 | 0.00 | 0.38 | 0.00 | 85 | 1011.4 |
| 20260507005517 | 60 | 96 | 2.6 | 2.6 | 0.00 | 0.38 | 0.00 | 84 | 1011.4 |
| 20260507004539 | 60 | 105 | 2.6 | 2.6 | 0.00 | 0.38 | 0.00 | 83 | 1011.4 |
| 20260507003522 | 60 | 96 | 2.6 | 2.6 | 0.00 | 0.38 | 0.00 | 82 | 1011.4 |
| 20260507002524 | 61 | 104 | 3.5 | 3.5 | 0.00 | 0.38 | 0.00 | 84 | 1011.4 |
| 20260507001517 | 61 | 171 | 2.6 | 5.2 | 0.00 | 0.38 | 0.00 | 84 | 1011.4 |
| 20260507000519 | 61 | 154 | 4.3 | 6.1 | 0.00 | 0.38 | 0.00 | 83 | 1011.4 |
| 20260506235522 | 61 | 157 | 4.3 | 5.2 | 0.00 | 0.38 | 0.00 | 84 | 1011.5 |
| 20260506234524 | 60 | 94 | 3.5 | 4.3 | 0.00 | 0.38 | 0.00 | 84 | 1011.6 |
| 20260506233517 | 61 | 83 | 2.6 | 3.5 | 0.00 | 0.38 | 0.00 | 83 | 1011.6 |
| 20260506232519 | 60 | 59 | 2.6 | 4.3 | 0.00 | 0.38 | 0.00 | 83 | 1011.7 |
| 20260506231522 | 60 | 43 | 3.5 | 5.2 | 0.00 | 0.38 | 0.00 | 82 | 1011.8 |
| 20260506230524 | 60 | 64 | 1.7 | 1.7 | 0.00 | 0.38 | 0.00 | 82 | 1012.0 |
| 20260506225517 | 60 | 133 | 3.5 | 5.2 | 0.00 | 0.38 | 0.00 | 83 | 1011.9 |
| 20260506224600 | 60 | 199 | 3.5 | 5.2 | 0.00 | 0.38 | 0.00 | 82 | 1011.7 |
| 20260506223522 | 60 | 96 | 6.1 | 7.0 | 0.00 | 0.38 | 0.00 | 81 | 1011.7 |
| 20260506222524 | 60 | 120 | 3.5 | 3.5 | 0.00 | 0.38 | 0.00 | 81 | 1011.9 |
| 20260506221517 | 60 | 120 | 2.6 | 4.3 | 0.00 | 0.38 | 0.00 | 81 | 1011.7 |
| 20260506220539 | 61 | 125 | 3.5 | 4.3 | 0.00 | 0.38 | 0.00 | 80 | 1011.6 |
| 20260506215522 | 60 | 98 | 3.5 | 4.3 | 0.00 | 0.38 | 0.38 | 80 | 1011.6 |
| 20260506214544 | 60 | 156 | 1.7 | 1.7 | 0.00 | 0.38 | 0.38 | 80 | 1011.6 |
| 20260506213516 | 60 | 10 | 1.7 | 2.6 | 0.00 | 0.38 | 0.38 | 78 | 1011.4 |
| 20260506212519 | 60 | 123 | 2.6 | 3.5 | 0.00 | 0.38 | 0.38 | 78 | 1011.5 |
| 20260506211521 | 61 | 142 | 1.7 | 2.6 | 0.00 | 0.38 | 0.38 | 78 | 1011.4 |
| 20260506210523 | 60 | 153 | 1.7 | 3.5 | 0.00 | 0.38 | 0.38 | 79 | 1011.6 |
| 20260506205515 | 60 | 175 | 0.9 | 1.7 | 0.00 | 0.38 | 0.38 | 79 | 1011.6 |
| 20260506204518 | 61 | 76 | 1.7 | 1.7 | 0.00 | 0.38 | 0.38 | 78 | 1011.6 |
| 20260506203520 | 61 | 124 | 0.9 | 1.7 | 0.00 | 0.38 | 0.38 | 78 | 1011.6 |
| 20260506202523 | 60 | 128 | 1.7 | 1.7 | 0.00 | 0.38 | 0.38 | 78 | 1011.5 |
| 20260506201524 | 61 | 179 | 3.5 | 6.1 | 0.00 | 0.38 | 0.38 | 79 | 1011.4 |
| 20260506200517 | 61 | 205 | 3.5 | 4.3 | 0.00 | 0.38 | 0.38 | 80 | 1011.4 |
| 20260506195519 | 61 | 183 | 5.2 | 6.1 | 0.00 | 0.38 | 0.38 | 83 | 1011.3 |
| 20260506194541 | 61 | 183 | 4.3 | 5.2 | 0.00 | 0.38 | 0.38 | 87 | 1011.2 |
| 20260506193524 | 61 | 204 | 6.1 | 9.6 | 0.00 | 0.38 | 0.38 | 87 | 1011.0 |
| 20260506192516 | 61 | 238 | 5.2 | 7.8 | 0.00 | 0.38 | 0.38 | 86 | 1011.0 |
| 20260506191518 | 61 | 208 | 1.7 | 2.6 | 0.00 | 0.38 | 0.38 | 86 | 1010.8 |
| 20260506190521 | 61 | 212 | 0.9 | 2.6 | 0.00 | 0.38 | 0.38 | 86 | 1010.6 |
| 20260506185523 | 62 | 201 | 2.6 | 3.5 | 0.00 | 0.38 | 0.38 | 85 | 1010.2 |
| 20260506184516 | 62 | 193 | 6.1 | 7.8 | 0.00 | 0.38 | 0.38 | 85 | 1010.1 |
| 20260506183559 | 62 | 177 | 6.1 | 7.8 | 0.00 | 0.38 | 0.38 | 84 | 1010.1 |
| 20260506182520 | 62 | 171 | 4.3 | 7.0 | 0.00 | 0.38 | 0.38 | 85 | 1010.2 |
| 20260506181522 | 62 | 160 | 5.2 | 8.7 | 0.00 | 0.38 | 0.38 | 86 | 1010.3 |
| 20260506180515 | 62 | 127 | 4.3 | 6.1 | 0.00 | 0.38 | 0.38 | 92 | 1010.2 |
| 20260506175537 | 62 | 189 | 2.6 | 4.3 | 0.00 | 0.38 | 0.38 | 92 | 1010.2 |
| 20260506174519 | 62 | 260 | 0.9 | 1.7 | 0.10 | 0.38 | 0.38 | 92 | 1010.1 |
| 20260506173542 | 62 | 228 | 1.7 | 3.5 | 0.10 | 0.38 | 0.38 | 93 | 1010.1 |
| 20260506172524 | 62 | 227 | 7.0 | 9.6 | 0.10 | 0.38 | 0.38 | 93 | 1010.0 |
| 20260506171516 | 62 | 222 | 5.2 | 6.1 | 0.10 | 0.38 | 0.38 | 92 | 1009.9 |
| 20260506170519 | 61 | 232 | 7.0 | 9.6 | 0.10 | 0.38 | 0.38 | 93 | 1009.8 |